EW0538 Weather Reports


time (UTC)temp
F
wind
direction
speed
knots
gust
knots
rain 1hr
in
rain 24hr
in
rain mn
in
humidity
%
barometer
mb
20260505004338 52 347 0.0 0.0 0.00 0.09 0.09 85 1003.0
20260505002301 52 18 0.0 0.9 0.00 0.09 0.09 82 1003.2
20260505000240 50 158 0.0 2.6 0.06 0.09 0.09 87 1003.7
20260504235244 51 328 0.0 0.0 0.08 0.08 0.08 86 1003.8
20260504234225 52 323 0.0 0.0 0.25 0.06 0.06 80 1003.9
20260504233230 53 8 0.0 1.7 0.00 0.04 0.05 76 1003.8
20260504232216 55 63 0.0 3.5 0.00 0.04 0.04 72 1003.6
20260504231218 56 335 0.9 5.2 0.00 0.04 0.04 66 1003.6
20260504230145 57 248 0.0 5.2 0.00 0.04 0.04 65 1003.3
20260504225203 57 114 0.0 0.0 0.00 0.04 0.04 62 1003.1
20260504224156 57 245 0.0 1.7 0.00 0.04 0.04 65 1003.3
20260504222054 55 128 0.0 4.3 0.00 0.04 0.04 71 1003.4
20260504221110 54 143 0.9 4.3 0.00 0.04 0.04 74 1003.5
20260504215000 55 124 0.9 0.0 0.00 0.04 0.04 71 1003.9
20260504213943 56 134 0.0 7.0 0.00 0.03 0.03 64 1004.2
20260504212917 55 253 0.9 7.0 0.00 0.03 0.03 67 1004.3
20260504210722 54 156 0.9 4.3 0.00 0.03 0.03 73 1004.9
20260504205719 54 128 0.0 0.9 0.00 0.03 0.03 75 1004.7
20260504204659 53 240 0.0 1.7 0.00 0.03 0.03 74 1004.7
20260504203701 52 105 0.0 0.0 0.00 0.03 0.03 77 1004.7
20260504202706 52 117 0.0 0.0 0.00 0.03 0.03 77 1004.9
20260504201644 53 263 1.7 7.8 0.00 0.02 0.02 73 1005.5
20260504200616 54 348 3.5 7.8 0.00 0.02 0.02 73 1005.0
20260504194425 58 0 0.0 0.0 0.00 0.02 0.02 64 1004.6
20260504193423 58 340 0.0 0.0 0.00 0.01 0.01 52 1004.5
20260504192414 60 127 0.9 6.1 0.00 0.01 0.01 52 1004.4
20260504191427 60 119 1.7 8.7 0.00 0.01 0.01 55 1004.7
20260504185307 57 169 0.9 6.1 0.00 0.01 0.01 58 1005.6
20260504184235 58 43 0.9 7.0 0.00 0.01 0.01 59 1005.4
20260504183236 56 99 1.7 7.0 0.00 0.01 0.01 58 1005.3
20260504182243 57 345 0.0 3.5 0.00 0.01 0.01 59 1005.3
20260504181241 58 91 0.9 3.5 0.00 0.01 0.01 65 1005.3
20260504180240 57 150 0.0 2.6 0.00 0.01 0.01 68 1005.5
20260504175242 54 146 0.0 6.1 0.00 0.01 0.01 72 1005.7
20260504174259 53 153 1.7 6.1 0.00 0.01 0.01 71 1006.0
20260504173246 53 156 0.0 2.6 0.00 0.01 0.01 73 1006.0
20260504171214 57 212 0.9 7.8 0.00 0.00 0.00 56 1006.4
20260504150502 49 340 0.0 2.6 0.00 0.00 0.00 73 1008.4
20260504141330 46 342 0.0 2.6 0.00 0.00 0.00 77 1008.9
20260504140349 46 345 0.0 2.6 0.00 0.00 0.00 77 1009.0
20260504081109 38 10 0.0 0.0 0.00 0.00 0.00 73 1007.6
20260504080128 38 314 0.0 0.0 0.00 0.00 0.00 75 1007.5
20260504070120 37 155 0.0 0.0 0.00 0.00 0.00 80 1007.6
20260504045822 42 155 0.0 0.0 0.00 0.00 0.00 61 1007.5
20260504044815 43 155 0.0 0.0 0.00 0.00 0.00 62 1007.6
20260504043806 44 155 0.0 0.0 0.00 0.00 0.00 62 1007.6
20260504042733 44 155 0.0 0.0 0.00 0.00 0.00 55 1007.5
20260504041727 45 155 0.0 0.0 0.00 0.00 0.00 58 1007.5
20260504040655 46 155 0.0 0.0 0.00 0.00 0.00 52 1007.3
20260504035704 47 155 0.0 0.0 0.00 0.00 0.00 48 1007.3
20260504031415 50 122 0.0 0.0 0.00 0.00 0.00 45 1006.9
20260504025259 54 123 0.0 0.0 0.00 0.00 0.00 39 1006.7
20260504024258 55 150 0.0 0.0 0.00 0.00 0.00 33 1006.6
20260504023257 56 148 0.0 0.0 0.00 0.00 0.00 33 1006.4
20260504022249 58 343 0.0 0.0 0.00 0.00 0.00 33 1006.2
20260504021310 60 342 0.0 0.0 0.00 0.00 0.00 28 1006.1
20260504015200 61 291 0.0 0.0 0.00 0.00 0.00 27 1006.0
20260504011941 66 294 0.0 0.0 0.00 0.00 0.00 21 1005.9
20260504005830 69 269 0.9 1.7 0.00 0.00 0.00 17 1005.8
20260504004829 69 264 2.6 10.4 0.00 0.00 0.00 16 1005.9